SCP
0 0 0 0 0 0 0 0 0 0 0 0 0 0 0 0 0 0 0 0 0 0 0 0 0 0 0
0 0 0 0 0 0 0 0 0 0 0 0 0 0 0 0 0 0 0 0 0 0 0 0 0 0 0
0 0 0 0 0 0 0 0 0 0 0 0 0 0 0 0 0 0 0 0 0 0 0 0 0 0 0
0 0 0 0 0 0 0 0 0 0 0 0 0 0 0 0 0 0 0 0 0 0 0 0 0 0 0
0 0 0 0 0 0 0 0 0 0 0 0 0 0 0 0 0 0 0 0 0 0 0 0 0 0 0
0 0 0 0 0 0 0 0 0 0 0 0 0 0 0 0 0 0 0 0 0 0 0 0 0 0 0
0 0 0 0 0 0 0 0 0 0 0 0 0 0 0 0 0 0 0 0 0 0 0 0 0 0 0
0 0 0 0 0 0 0 0 0 0 0 0 0 0 0 0 0 0 0 0 0 0 0 0 0 0 0
0 0 0 0 0 0 0 0 0 0 0 0 0 0 0 0 0 0 0 0 0 0 0 0 0 0 0
0 0 0 0 0 0 0 0 0 0 0 0 0 0 0 0 0 0 0 0 0 0 0 0 0 0 0
0 0 0 0 0 0 0 0 0 0 0 0 0 0 0 0 0 0 0 0 0 0 0 0 0 0 0
0 0 0 0 0 0 0 0 0 0 0 0 0 0 0 0 0 0 0 0 0 0 0 0 0 0 0
0 0 0 0 0 0 0 0 0 0 0 0 0 0 0 0 0 0 0 0 0 0 0 0 0 0 0
0 0 0 0 0 0 0 0 0 0 0 0 0 0 0 0 0 0 -0 -0 0 0 0 0 0 0 0
0 0 0 0 0 0 0 0 0 0 0 0 0 0 0 0 0 0 0 0 0 0 0 0 0 0 -0
0 0 0 0 0 0 0 0 0 0 0 0 0 0 0 0 0 0 0 0 0 0 0 0 0 0 0
Wind_Speed_500mb
30 38 39 38 35 30 27 24 21 21 21 13 12 14 16 18 21 21 15 14 15 17 13 8 6 7 7
27 33 39 40 38 35 32 28 25 25 27 21 19 19 19 20 22 21 16 15 14 14 12 9 8 9 10
24 27 32 38 38 35 32 30 28 29 31 29 25 23 23 23 23 24 21 19 17 15 13 12 11 12 13
24 26 29 33 34 35 33 30 31 30 32 30 29 27 26 26 26 26 24 21 21 19 18 16 15 14 15
23 22 23 27 30 32 34 38 35 33 34 31 32 34 32 29 28 29 26 22 23 23 24 22 20 18 17
29 26 21 20 22 30 36 38 38 38 37 33 34 33 37 37 34 33 32 26 26 25 27 27 26 24 22
37 33 27 21 17 17 22 35 37 36 36 34 32 36 37 37 37 36 35 31 31 30 31 31 31 30 28
30 34 28 21 14 8 7 10 18 29 34 35 38 32 34 37 37 39 37 38 34 32 32 35 36 36 35
17 25 25 20 13 8 6 6 9 12 17 23 27 32 30 31 36 40 40 39 36 34 33 35 38 40 41
6 17 20 16 13 15 15 14 16 16 20 24 27 26 29 35 32 35 35 37 37 35 37 39 42 43 43
16 15 16 17 13 13 10 10 13 16 16 17 19 23 22 24 28 34 36 35 35 32 38 41 42 43 45
21 20 20 22 15 6 1 4 7 11 16 17 18 18 19 21 24 17 19 21 25 29 34 44 44 45 46
20 21 26 20 18 10 8 3 3 7 12 16 17 19 20 20 20 22 25 29 29 32 38 45 51 53 55
22 25 22 22 18 11 9 4 5 7 11 13 13 16 18 19 21 25 34 38 37 37 37 43 39 47 32
33 30 26 22 20 12 11 9 9 9 11 13 16 19 21 20 20 23 24 28 33 33 36 27 17 15 53
40 34 30 30 24 25 22 22 19 16 14 15 16 17 19 20 19 20 22 25 26 28 31 30 30 38 40
Wind_Direction_500mb
239 240 244 248 251 254 254 252 254 265 274 275 282 301 318 323 328 332 320 309 307 306 303 298 300 308 317
248 246 244 246 250 250 250 248 248 258 266 264 270 284 299 314 328 332 326 310 305 298 292 296 304 311 315
255 254 251 248 248 249 249 250 251 252 259 264 261 271 284 296 309 325 326 315 305 288 279 282 289 299 307
253 248 250 250 246 246 251 252 247 251 265 265 263 271 275 283 293 303 315 314 300 287 273 269 274 284 293
251 256 252 252 251 244 242 244 245 250 255 264 265 270 273 282 288 291 299 305 294 286 277 275 275 279 283
241 239 246 250 254 251 243 247 250 251 258 265 264 269 273 282 288 295 292 295 293 279 272 273 275 277 279
237 233 234 245 260 277 249 246 246 253 258 259 270 275 276 278 284 294 307 303 292 288 279 272 271 272 273
238 233 229 238 252 281 302 255 251 249 254 262 266 283 277 281 282 289 295 297 298 292 288 283 280 279 278
242 223 220 224 234 247 264 267 265 248 249 255 266 276 281 280 285 287 286 296 295 303 300 288 279 277 278
186 188 194 203 203 228 244 246 255 254 250 252 258 263 271 269 278 281 292 295 292 295 301 305 294 283 276
109 137 163 166 187 225 229 248 260 270 286 286 281 275 284 283 272 271 266 271 272 283 293 296 298 293 288
107 117 130 139 139 173 229 281 295 290 275 265 277 284 282 284 284 305 297 289 296 299 295 291 295 296 290
110 118 122 132 128 129 119 101 336 321 300 296 290 289 297 300 298 299 302 302 297 297 297 297 286 287 291
115 113 115 121 128 114 100 58 348 314 310 304 297 297 298 308 307 310 309 307 306 307 308 306 311 300 303
84 89 95 98 96 88 65 45 35 12 337 325 324 315 307 300 296 294 290 293 299 300 304 310 320 300 302
74 73 82 83 77 65 54 48 44 36 22 10 359 349 342 334 316 306 298 299 300 303 301 302 299 299 310
Wind_Speed_850mb
30 38 39 38 35 30 27 24 21 21 21 13 12 14 16 18 21 21 15 14 15 17 13 8 6 7 7
27 33 39 40 38 35 32 28 25 25 27 21 19 19 19 20 22 21 16 15 14 14 12 9 8 9 10
24 27 32 38 38 35 32 30 28 29 31 29 25 23 23 23 23 24 21 19 17 15 13 12 11 12 13
24 26 29 33 34 35 33 30 31 30 32 30 29 27 26 26 26 26 24 21 21 19 18 16 15 14 15
23 22 23 27 30 32 34 38 35 33 34 31 32 34 32 29 28 29 26 22 23 23 24 22 20 18 17
29 26 21 20 22 30 36 38 38 38 37 33 34 33 37 37 34 33 32 26 26 25 27 27 26 24 22
37 33 27 21 17 17 22 35 37 36 36 34 32 36 37 37 37 36 35 31 31 30 31 31 31 30 28
30 34 28 21 14 8 7 10 18 29 34 35 38 32 34 37 37 39 37 38 34 32 32 35 36 36 35
17 25 25 20 13 8 6 6 9 12 17 23 27 32 30 31 36 40 40 39 36 34 33 35 38 40 41
6 17 20 16 13 15 15 14 16 16 20 24 27 26 29 35 32 35 35 37 37 35 37 39 42 43 43
16 15 16 17 13 13 10 10 13 16 16 17 19 23 22 24 28 34 36 35 35 32 38 41 42 43 45
21 20 20 22 15 6 1 4 7 11 16 17 18 18 19 21 24 17 19 21 25 29 34 44 44 45 46
20 21 26 20 18 10 8 3 3 7 12 16 17 19 20 20 20 22 25 29 29 32 38 45 51 53 55
22 25 22 22 18 11 9 4 5 7 11 13 13 16 18 19 21 25 34 38 37 37 37 43 39 47 32
33 30 26 22 20 12 11 9 9 9 11 13 16 19 21 20 20 23 24 28 33 33 36 27 17 15 53
40 34 30 30 24 25 22 22 19 16 14 15 16 17 19 20 19 20 22 25 26 28 31 30 30 38 40
Wind_Direction_850mb
239 240 244 248 251 254 254 252 254 265 274 275 282 301 318 323 328 332 320 309 307 306 303 298 300 308 317
248 246 244 246 250 250 250 248 248 258 266 264 270 284 299 314 328 332 326 310 305 298 292 296 304 311 315
255 254 251 248 248 249 249 250 251 252 259 264 261 271 284 296 309 325 326 315 305 288 279 282 289 299 307
253 248 250 250 246 246 251 252 247 251 265 265 263 271 275 283 293 303 315 314 300 287 273 269 274 284 293
251 256 252 252 251 244 242 244 245 250 255 264 265 270 273 282 288 291 299 305 294 286 277 275 275 279 283
241 239 246 250 254 251 243 247 250 251 258 265 264 269 273 282 288 295 292 295 293 279 272 273 275 277 279
237 233 234 245 260 277 249 246 246 253 258 259 270 275 276 278 284 294 307 303 292 288 279 272 271 272 273
238 233 229 238 252 281 302 255 251 249 254 262 266 283 277 281 282 289 295 297 298 292 288 283 280 279 278
242 223 220 224 234 247 264 267 265 248 249 255 266 276 281 280 285 287 286 296 295 303 300 288 279 277 278
186 188 194 203 203 228 244 246 255 254 250 252 258 263 271 269 278 281 292 295 292 295 301 305 294 283 276
109 137 163 166 187 225 229 248 260 270 286 286 281 275 284 283 272 271 266 271 272 283 293 296 298 293 288
107 117 130 139 139 173 229 281 295 290 275 265 277 284 282 284 284 305 297 289 296 299 295 291 295 296 290
110 118 122 132 128 129 119 101 336 321 300 296 290 289 297 300 298 299 302 302 297 297 297 297 286 287 291
115 113 115 121 128 114 100 58 348 314 310 304 297 297 298 308 307 310 309 307 306 307 308 306 311 300 303
84 89 95 98 96 88 65 45 35 12 337 325 324 315 307 300 296 294 290 293 299 300 304 310 320 300 302
74 73 82 83 77 65 54 48 44 36 22 10 359 349 342 334 316 306 298 299 300 303 301 302 299 299 310